TimeCST,TemperatureF,Dew PointF,Humidity,Sea Level PressureIn,VisibilityMPH,Wind Direction,Wind SpeedMPH,Gust SpeedMPH,PrecipitationIn,Events,Conditions,WindDirDegrees,DateUTC
12:15 AM,35.6,32.0,87,30.39,8.0,Calm,Calm,-,N/A,,Clear,0,2012-11-17 06:15:00
12:35 AM,35.6,32.0,87,30.39,10.0,Calm,Calm,-,N/A,,Clear,0,2012-11-17 06:35:00
12:55 AM,37.4,32.0,81,30.39,10.0,ESE,6.9,-,N/A,,Clear,110,2012-11-17 06:55:00
1:15 AM,35.6,32.0,87,30.39,10.0,WSW,5.8,-,N/A,,Partly Cloudy,250,2012-11-17 07:15:00
1:35 AM,33.8,32.0,93,30.38,9.0,ESE,6.9,-,N/A,,Clear,120,2012-11-17 07:35:00
1:55 AM,35.6,32.0,87,30.39,10.0,Calm,Calm,-,N/A,,Clear,0,2012-11-17 07:55:00
2:15 AM,35.6,32.0,87,30.39,10.0,ESE,3.5,-,N/A,,Clear,120,2012-11-17 08:15:00
2:35 AM,37.4,32.0,81,30.39,10.0,ESE,8.1,-,N/A,,Clear,120,2012-11-17 08:35:00
2:55 AM,39.2,32.0,75,30.39,10.0,ESE,6.9,-,N/A,,Clear,110,2012-11-17 08:55:00
3:15 AM,39.2,32.0,75,30.39,10.0,ESE,6.9,-,N/A,,Clear,120,2012-11-17 09:15:00
3:35 AM,39.2,32.0,75,30.39,9.0,ESE,4.6,-,N/A,,Clear,110,2012-11-17 09:35:00
3:55 AM,39.2,32.0,75,30.40,10.0,Calm,Calm,-,N/A,,Clear,0,2012-11-17 09:55:00
4:15 AM,39.2,32.0,75,30.40,10.0,Calm,Calm,-,N/A,,Clear,0,2012-11-17 10:15:00
4:35 AM,39.2,32.0,75,30.40,10.0,East,3.5,-,N/A,,Clear,100,2012-11-17 10:35:00
4:55 AM,35.6,30.2,81,30.40,10.0,Calm,Calm,-,N/A,,Clear,0,2012-11-17 10:55:00
5:35 AM,33.8,30.2,87,30.41,10.0,Calm,Calm,-,N/A,,Clear,0,2012-11-17 11:35:00
5:55 AM,32.0,28.4,87,30.42,10.0,Calm,Calm,-,N/A,,Clear,0,2012-11-17 11:55:00
6:15 AM,32.0,28.4,87,30.42,5.0,Calm,Calm,-,N/A,,Clear,0,2012-11-17 12:15:00
6:35 AM,32.0,32.0,100,30.42,8.0,East,3.5,-,N/A,,Clear,90,2012-11-17 12:35:00
6:55 AM,33.8,30.2,87,30.43,9.0,Calm,Calm,-,N/A,,Clear,0,2012-11-17 12:55:00
7:15 AM,30.2,26.6,86,30.43,0.2,Calm,Calm,-,N/A,Fog,Light Freezing Fog,0,2012-11-17 13:15:00
7:35 AM,32.0,30.2,93,30.44,3.0,West,4.6,-,N/A,,Clear,270,2012-11-17 13:35:00
7:55 AM,33.8,32.0,93,30.44,5.0,Calm,Calm,-,N/A,,Clear,0,2012-11-17 13:55:00
8:15 AM,37.4,35.6,93,30.44,6.0,West,4.6,-,N/A,,Clear,270,2012-11-17 14:15:00
8:35 AM,39.2,35.6,87,30.45,8.0,Calm,Calm,-,N/A,,Clear,0,2012-11-17 14:35:00
8:55 AM,44.6,32.0,61,30.45,9.0,ESE,6.9,-,N/A,,Clear,120,2012-11-17 14:55:00
9:15 AM,48.2,30.2,50,30.44,9.0,ESE,11.5,-,N/A,,Clear,110,2012-11-17 15:15:00
9:55 AM,50.0,30.2,47,30.45,10.0,SE,6.9,-,N/A,,Clear,130,2012-11-17 15:55:00
10:15 AM,50.0,30.2,47,30.45,10.0,SE,6.9,-,N/A,,Clear,130,2012-11-17 16:15:00
11:35 AM,57.2,19.4,23,30.41,10.0,SSE,12.7,-,N/A,,Clear,150,2012-11-17 17:35:00
11:55 AM,59.0,21.2,23,30.40,10.0,SE,11.5,-,N/A,,Clear,140,2012-11-17 17:55:00
12:15 PM,59.0,21.2,23,30.39,10.0,SSE,6.9,-,N/A,,Clear,150,2012-11-17 18:15:00
12:35 PM,59.0,23.0,25,30.38,9.0,SE,8.1,-,N/A,,Clear,130,2012-11-17 18:35:00
12:55 PM,60.8,21.2,22,30.37,10.0,SE,5.8,-,N/A,,Clear,140,2012-11-17 18:55:00
1:35 PM,62.6,19.4,19,30.36,9.0,SSE,4.6,-,N/A,,Clear,160,2012-11-17 19:35:00
1:55 PM,62.6,19.4,19,30.35,9.0,SSE,6.9,-,N/A,,Clear,150,2012-11-17 19:55:00
2:35 PM,64.4,19.4,18,30.34,10.0,Calm,Calm,-,N/A,,Clear,0,2012-11-17 20:35:00
2:55 PM,64.4,21.2,19,30.32,10.0,SE,5.8,-,N/A,,Clear,140,2012-11-17 20:55:00
3:15 PM,64.4,21.2,19,30.31,10.0,SSE,5.8,-,N/A,,Clear,150,2012-11-17 21:15:00
3:35 PM,64.4,23.0,21,30.31,10.0,SE,9.2,-,N/A,,Clear,130,2012-11-17 21:35:00
3:55 PM,62.6,23.0,22,30.31,10.0,SSE,6.9,-,N/A,,Clear,150,2012-11-17 21:55:00
4:15 PM,62.6,23.0,22,30.32,9.0,SSE,6.9,-,N/A,,Clear,160,2012-11-17 22:15:00
4:35 PM,60.8,24.8,25,30.32,10.0,Calm,Calm,-,N/A,,Clear,0,2012-11-17 22:35:00
4:55 PM,59.0,26.6,29,30.32,10.0,ESE,5.8,-,N/A,,Clear,110,2012-11-17 22:55:00
5:15 PM,53.6,28.4,38,30.31,10.0,ESE,5.8,-,N/A,,Clear,120,2012-11-17 23:15:00
5:35 PM,51.8,32.0,47,30.31,10.0,ESE,6.9,-,N/A,,Clear,120,2012-11-17 23:35:00
5:55 PM,50.0,30.2,47,30.31,10.0,ESE,6.9,-,N/A,,Clear,110,2012-11-17 23:55:00
6:15 PM,50.0,32.0,50,30.31,9.0,ESE,6.9,-,N/A,,Clear,120,2012-11-18 00:15:00
6:35 PM,50.0,30.2,47,30.32,10.0,ESE,6.9,-,N/A,,Clear,120,2012-11-18 00:35:00
6:55 PM,50.0,28.4,43,30.32,10.0,ESE,8.1,-,N/A,,Clear,110,2012-11-18 00:55:00
7:15 PM,50.0,28.4,43,30.31,10.0,ESE,6.9,-,N/A,,Clear,110,2012-11-18 01:15:00
7:35 PM,48.2,30.2,50,30.32,10.0,ESE,6.9,-,N/A,,Clear,110,2012-11-18 01:35:00
7:55 PM,46.4,32.0,57,30.32,10.0,ESE,8.1,-,N/A,,Clear,120,2012-11-18 01:55:00
8:15 PM,48.2,30.2,50,30.32,10.0,ESE,8.1,-,N/A,,Clear,120,2012-11-18 02:15:00
8:35 PM,50.0,28.4,43,30.32,10.0,ESE,8.1,-,N/A,,Clear,120,2012-11-18 02:35:00
8:55 PM,48.2,28.4,46,30.31,10.0,ESE,8.1,-,N/A,,Clear,120,2012-11-18 02:55:00
9:15 PM,48.2,30.2,50,30.31,10.0,ESE,8.1,-,N/A,,Clear,110,2012-11-18 03:15:00
9:35 PM,48.2,30.2,50,30.31,10.0,ESE,8.1,-,N/A,,Clear,110,2012-11-18 03:35:00
9:55 PM,46.4,30.2,53,30.31,10.0,ESE,8.1,-,N/A,,Clear,110,2012-11-18 03:55:00
10:15 PM,46.4,30.2,53,30.32,10.0,ESE,10.4,-,N/A,,Clear,110,2012-11-18 04:15:00
10:35 PM,46.4,30.2,53,30.32,10.0,ESE,8.1,-,N/A,,Clear,110,2012-11-18 04:35:00
11:15 PM,44.6,32.0,61,30.33,10.0,ESE,6.9,-,N/A,,Unknown,110,2012-11-18 05:15:00
11:35 PM,44.6,32.0,61,30.33,10.0,ESE,6.9,-,N/A,,Clear,110,2012-11-18 05:35:00
11:55 PM,44.6,32.0,61,30.33,10.0,ESE,8.1,-,N/A,,Clear,110,2012-11-18 05:55:00